Regional Weather Roundup
Issued by NWS

Home | Current Version | Previous Version | Graphics & Text | Print | Product List | Glossary On
Versions: 1 2 3 4 5 6 7 8 9 10 11 12 13 14 15 16 17 18 19 20 21 22 23 24 25 26 27 28 29 30 31 32 33 34 35 36 37 38 39 40 41 42 43 44 45 46 47 48 49 50
000
ASUS43 KOAX 031010
RWRNE

WEATHER ROUNDUP FOR NEBRASKA
NATIONAL WEATHER SERVICE OMAHA NE
400 AM CST TUE MAR 03 2015

NOTES: SATELLITE DATA IS BEING USED TO AUGMENT CLOUD COVER ABOVE
       12000 FEET.
       "FAIR" INDICATES FEW OR NO CLOUDS BELOW 12,000 FEET WITH NO
       SIGNIFICANT WEATHER AND/OR OBSTRUCTIONS TO VISIBILITY.

  * THESE STATIONS DO NOT REPORT WEATHER SUCH AS RAIN...SNOW OR FOG.

NEZ001>004-019>022-054>056-031100-
NEBRASKA PANHANDLE

CITY           SKY/WX    TMP DP  RH WIND       PRES   REMARKS
SCOTTSBLUFF    LGT SNOW  30  27  88 N13       29.67R FOG     WCI  20
ALLIANCE       CLOUDY    29  26  89 N21G26    29.61F WCI  16
CHADRON        SNOW      25  21  85 N24G30    29.76R VSB 1/2 WCI   9
KIMBALL        CLOUDY    29  28  97 CALM      29.58R FOG
SIDNEY         CLOUDY    29  27  92 NW8       29.60F FOG     WCI  21
$$

NEZ057>060-069>072-079>082-031100-
SOUTHWEST NEBRASKA

CITY           SKY/WX    TMP DP  RH WIND       PRES   REMARKS
NORTH PLATTE   CLOUDY    27  23  85 CALM      29.60S
IMPERIAL         N/A     28  24  85 N8        29.60R FOG     WCI  20
LEXINGTON      CLOUDY    29  23  79 E5        29.59F WCI  24
MCCOOK         CLOUDY    30  23  75 N9        29.58S WCI  22
OGALLALA       FOG       28  28  99 CALM      29.62R VSB 1/2
$$

NEZ005>010-023>029-035>040-094-031100-
NORTH CENTRAL NEBRASKA

CITY           SKY/WX    TMP DP  RH WIND       PRES   REMARKS
VALENTINE      LGT SNOW  29  27  92 NE7       29.55F VSB 1   WCI  22
AINSWORTH      LGT SNOW  28  26  93 SW5       29.60F WCI  23
BROKEN BOW     CLOUDY    28  22  78 SE5       29.59F WCI  23
O`NEILL        CLOUDY    30  23  76 SW10      29.63F WCI  21
ORD            CLOUDY    28  20  71 S5        29.63F WCI  23
THEDFORD       LGT SNOW  28  27  98 CALM      29.52F
$$

NEZ041-046>049-061>064-073>077-083>087-031100-
SOUTH CENTRAL NEBRASKA

CITY           SKY/WX    TMP DP  RH WIND       PRES   REMARKS
GRAND ISLAND   CLOUDY    29  23  78 SE5       29.64F WCI  24
AURORA         CLOUDY    30  25  82 SE5       29.62F WCI  25
HASTINGS       CLOUDY    30  24  78 S5        29.60F WCI  25
HEBRON         CLOUDY    33  29  84 S8        29.67F FOG     WCI  27
HOLDREGE       CLOUDY    29  24  81 CALM      29.60R
KEARNEY *      CLOUDY    28  21  74 N5        29.63R WCI  23
YORK           CLOUDY    30  27  86 SE7       29.64F WCI  23
$$

NEZ011>018-030>034-042>045-031100-
NORTHEAST NEBRASKA

CITY           SKY/WX    TMP DP  RH WIND       PRES   REMARKS
NORFOLK        CLOUDY    30  22  72 S6        29.64F WCI  24
ALBION         CLOUDY    29  22  73 S6        29.64F WCI  23
BLAIR          CLOUDY    32  25  76 S9        29.69F WCI  24
COLUMBUS *     CLOUDY    30  19  64 S10       29.67F WCI  21
FREMONT        CLOUDY    32  26  79 SE8       29.69F WCI  25
TEKAMAH        CLOUDY    32  23  69 S15       29.69F WCI  22
WAYNE          CLOUDY    29  22  75 CALM      29.67F
$$

NEZ050>053-065>068-078-088>093-031100-
SOUTHEAST NEBRASKA

CITY           SKY/WX    TMP DP  RH WIND       PRES   REMARKS
LINCOLN        CLOUDY    32  28  85 SE7       29.70F FOG     WCI  26
OMAHA EPPLEY   CLOUDY    32  26  78 S15       29.72F WCI  22
BEATRICE       CLOUDY    33  32  99 S13       29.69F FOG     WCI  23
FALLS CITY     CLOUDY    34  31  88 S13       29.71F FOG     WCI  25
NEBRASKA CITY  CLOUDY    32  29  88 S8        29.72F FOG     WCI  25
PLATTSMOUTH    CLOUDY    31  27  84 SE7       29.72F FOG     WCI  24
$$

NEZ044-045-051>053-067-031100-
OMAHA AREA

CITY           SKY/WX    TMP DP  RH WIND       PRES   REMARKS
OMAHA EPPLEY   CLOUDY    32  26  78 S15       29.72F WCI  22
BLAIR          CLOUDY    32  25  76 S9        29.69F WCI  24
FREMONT        CLOUDY    32  26  79 SE8       29.69F WCI  25
MILLARD        CLOUDY    32  25  74 SE5       29.72F WCI  27
OFFUTT AFB     CLOUDY    32  27  84 SE10      29.71F WCI  23
PLATTSMOUTH    CLOUDY    31  27  84 SE7       29.72F FOG     WCI  24
WAHOO          CLOUDY    32  25  77 S8        29.69F WCI  25
$$


USA.gov is the U.S. government's official web portal to all federal, state and local government web resources and services.